Weather History for Lusaka, Zambia

Change the Weather History Date:

Wednesday, February 13, 2013

  Actual Average Record
Temperature  
Mean Temperature 72 °F -  
Max Temperature 77 °F 79 °F 86 °F (2002)
Min Temperature 68 °F 65 °F 48 °F (2009)
Cooling Degree Days 8    
Growing Degree Days 22 (Base 50)    
Moisture  
Dew Point 68 °F    
Average Humidity 88    
Maximum Humidity 100    
Minimum Humidity 69    
Precipitation  
Precipitation 0.00 in - - ()
Sea Level Pressure  
Sea Level Pressure 30.00 in    
Wind  
Wind Speed 3 mph ()    
Max Wind Speed 7 mph    
Max Gust Speed -    
Visibility 6.7 miles    
Events Rain    
Averages and records for this station are not official NWS values.
T = Trace of Precipitation, MM = Missing Value Source: Averaged Metar Reports

Daily Weather History Graph

Daily Weather History Graph

Search for Another Location

Airport:

Trip Planner

Search our weather history database for the weather conditions in past years. The results will help you decide how hot, cold, wet, or windy it might be!

Date:

Astronomy

Feb. 13, 2013 Rise Set
Actual Time 6:01 AM CAT 6:38 PM CAT
Civil Twilight 5:39 AM CAT 7:00 PM CAT
Nautical Twilight 5:13 AM CAT 7:26 PM CAT
Astronomical Twilight 4:47 AM CAT 7:52 PM CAT
Moon 8:41 AM CAT (2/13) 8:50 PM CAT (2/13)
Length of Visible Light 13h 20m
Length of Day
12h 36m
Waxing Crescent, 11% of the Moon is Illuminated
Feb 13
Waxing Crescent
Feb 17
First Quarter
Feb 25
Full
Mar 4
Last Quarter
Mar 11
New

Hourly Weather History & Observations

Time (CAT) Temp. Dew Point Humidity Pressure Visibility Wind Dir Wind Speed Gust Speed Precip Events Conditions
12:00 AM 68.0 °F 66.2 °F 94% 30.04 in 6.2 mi WSW 4.6 mph - N/A   Overcast
1:00 AM 68.0 °F 66.2 °F 94% 30.01 in 6.2 mi WSW 6.9 mph - N/A   Mostly Cloudy
5:00 AM 68.0 °F 68.0 °F 100% 30.04 in 6.2 mi NW 3.5 mph - N/A   Mostly Cloudy
6:00 AM 68.0 °F 66.2 °F 94% 30.04 in 6.2 mi WSW 2.3 mph - N/A   Overcast
7:00 AM 68.0 °F 68.0 °F 100% 30.06 in 6.2 mi North 2.3 mph - N/A   Overcast
8:00 AM 68 °F 68 °F 100%  in 4 mi NNE 4.6 mph - - Rain Light Rain
9:00 AM 69.8 °F 68.0 °F 94% 30.09 in 4.3 mi NNW 4.6 mph - N/A Rain Rain
10:00 AM 69.8 °F 68.0 °F 94% 30.09 in 4.3 mi NNW 5.8 mph - N/A Rain Rain
12:00 PM 73.4 °F 71.6 °F 94% 30.04 in 6.2 mi NE 3.5 mph - N/A   Mostly Cloudy
1:00 PM 75.2 °F 71.6 °F 89% 29.98 in - East 2.3 mph - N/A   Clear
2:00 PM 78.8 °F 75.2 °F 89% 29.98 in 6.2 mi ESE 2.3 mph - N/A   Mostly Cloudy
3:00 PM 75.2 °F 68.0 °F 78% 29.95 in 6.2 mi NNW 3.5 mph - N/A   Mostly Cloudy
4:00 PM 77.0 °F 68.0 °F 74% 29.92 in 6.2 mi WSW 3.5 mph - N/A   Mostly Cloudy
5:00 PM 75.2 °F 68.0 °F 78% 29.95 in 6.2 mi NNW 3.5 mph - N/A   Mostly Cloudy
6:00 PM 77.0 °F 66.2 °F 69% 29.92 in 6.2 mi West 3.5 mph - N/A   Mostly Cloudy
7:00 PM 73.4 °F 66.2 °F 78% 29.95 in - Calm Calm - N/A   Clear
8:00 PM 72 °F 69 °F 85%  in 19 mi South 1.2 mph - -   Scattered Clouds
8:00 PM 71.6 °F 68.0 °F 88% 29.95 in - Calm Calm - N/A   Clear
9:00 PM 69.8 °F 64.4 °F 83% 29.98 in - ESE 3.5 mph - N/A   Clear
10:00 PM 69.8 °F 66.2 °F 88% 30.01 in - ESE 3.5 mph - N/A   Clear
11:00 PM 68.0 °F 66.2 °F 94% 30.01 in - SSE 3.5 mph - N/A   Clear